FW3892 Weather Reports


Display with metric or nautical units.
time (UTC)temp
F
wind
direction
speed
MPH
gust
MPH
rain 1hr
in
rain 24hr
in
rain mn
in
humidity
%
barometer
mb
20210925013006 69 138 0.0 1.0 0.00 0.05 0.05 81 1016.9
20210925011503 69 138 0.0 1.0 0.00 0.05 0.05 83 1016.9
20210925010002 69 138 0.0 1.0 0.00 0.05 0.05 85 1016.9
20210925004501 70 146 0.0 2.0 0.00 0.05 0.05 87 1017.0
20210925003315 70 147 0.0 0.0 0.00 0.05 0.05 87 1016.8
20210925001624 71 147 0.0 0.0 0.00 0.05 0.05 89 1016.8
20210925000033 71 149 0.0 1.0 0.00 0.05 0.05 88 1016.7
20210924234510 71 149 0.0 3.0 0.00 0.05 0.05 88 1016.4
20210924233030 71 149 0.0 1.0 0.00 0.05 0.05 88 1016.3
20210924231519 72 140 0.0 1.0 0.00 0.05 0.05 88 1016.2
20210924230008 72 248 0.0 1.0 0.00 0.05 0.05 88 1016.2
20210924224507 72 164 0.0 1.0 0.00 0.05 0.05 87 1016.0
20210924223006 73 27 0.0 0.0 0.00 0.05 0.05 87 1015.8
20210924221538 73 89 0.0 0.0 0.00 0.05 0.05 86 1015.8
20210924220006 73 156 0.0 1.0 0.00 0.05 0.05 85 1015.8
20210924214508 74 146 0.0 3.0 0.00 0.05 0.05 84 1015.7
20210924213006 74 225 0.0 0.0 0.00 0.05 0.05 84 1015.6
20210924211505 74 60 0.0 1.0 0.00 0.05 0.05 83 1015.5
20210924210007 75 272 0.0 4.0 0.00 0.05 0.05 82 1015.3
20210924204509 75 151 0.0 5.0 0.00 0.05 0.05 83 1015.2
20210924203004 75 162 0.0 5.0 0.00 0.05 0.05 83 1015.2
20210924201503 75 179 0.0 5.0 0.00 0.05 0.05 82 1015.2
20210924200002 76 223 0.0 7.0 0.00 0.06 0.05 81 1015.1
20210924194502 76 61 0.0 10.0 0.00 0.06 0.05 81 1015.1
20210924193147 76 164 0.0 4.0 0.00 0.06 0.05 83 1015.2
20210924191636 75 248 0.0 8.0 0.00 0.06 0.05 83 1015.2
20210924190137 76 300 0.0 4.0 0.00 0.06 0.05 86 1015.1
20210924184724 75 242 0.0 4.0 0.00 0.06 0.05 88 1015.1
20210924183115 75 111 0.0 6.0 0.00 0.06 0.05 87 1014.8
20210924181652 74 277 0.0 6.0 0.00 0.06 0.05 88 1014.9
20210924180200 74 146 1.0 10.0 0.00 0.06 0.05 90 1015.3
20210924174715 73 212 0.0 8.0 0.01 0.06 0.05 92 1015.3
20210924173119 73 198 0.0 6.0 0.01 0.06 0.05 92 1015.7
20210924171618 73 205 0.0 7.0 0.01 0.06 0.05 92 1016.2
20210924170109 74 284 0.0 9.0 0.01 0.08 0.05 90 1016.3
20210924164623 75 305 0.0 9.0 0.00 0.07 0.04 87 1016.0
20210924163119 75 242 0.0 7.0 0.00 0.07 0.04 86 1015.8
20210924161659 75 141 0.0 5.0 0.00 0.07 0.04 86 1016.4
20210924160116 75 202 0.0 5.0 0.00 0.07 0.04 86 1016.7
20210924154626 75 146 0.0 3.0 0.00 0.07 0.04 86 1016.6
20210924153052 75 214 0.0 1.0 0.00 0.07 0.04 87 1016.5
20210924151620 75 175 0.0 6.0 0.00 0.07 0.04 86 1016.7
20210924150116 75 256 0.0 3.0 0.00 0.07 0.04 86 1016.4
20210924144625 75 231 0.0 5.0 0.00 0.07 0.04 86 1016.5
20210924143152 76 207 1.0 9.0 0.00 0.07 0.04 85 1016.3
20210924141643 76 169 0.0 6.0 0.00 0.07 0.04 86 1016.3
20210924140120 76 171 1.0 7.0 0.00 0.07 0.04 85 1016.3
20210924134616 75 191 0.0 8.0 0.00 0.07 0.04 86 1016.2
20210924133103 75 267 0.0 3.0 0.00 0.07 0.04 88 1016.0
20210924131555 74 184 0.0 14.0 0.00 0.07 0.04 88 1015.8
20210924130119 74 241 1.0 6.0 0.00 0.07 0.04 89 1015.7
20210924124617 74 230 0.0 5.0 0.00 0.07 0.04 91 1015.7
20210924123046 73 341 0.0 4.0 0.00 0.07 0.04 92 1015.8
20210924121544 73 87 0.0 5.0 0.00 0.07 0.04 92 1015.7
20210924120130 73 29 0.0 4.0 0.00 0.07 0.04 93 1015.7
20210924114626 73 158 1.0 6.0 0.00 0.07 0.04 93 1015.7
20210924113125 73 261 1.0 5.0 0.00 0.07 0.04 93 1015.8
20210924111540 72 136 0.0 5.0 0.00 0.07 0.04 94 1016.2
20210924110055 72 289 0.0 5.0 0.00 0.07 0.04 95 1016.2
20210924104550 72 243 0.0 4.0 0.00 0.07 0.04 95 1016.4
20210924103113 72 123 0.0 4.0 0.00 0.07 0.04 95 1016.3
20210924101541 72 89 0.0 6.0 0.00 0.07 0.04 96 1016.6
20210924100036 71 129 0.0 3.0 0.00 0.07 0.04 96 1016.6
20210924094605 71 75 0.0 3.0 0.00 0.07 0.04 97 1016.7
20210924093042 71 227 0.0 4.0 0.00 0.07 0.04 97 1016.8
20210924083029 70 231 0.0 4.0 0.00 0.07 0.04 99 1016.6
20210924081551 70 346 0.0 6.0 0.00 0.07 0.04 99 1016.4
20210924080026 70 17 0.0 9.0 0.00 0.07 0.04 99 1016.3
20210924074538 70 282 0.0 2.0 0.00 0.07 0.04 99 1016.4
20210924073021 70 318 0.0 1.0 0.00 0.07 0.04 99 1016.8
20210924071548 69 157 0.0 1.0 0.01 0.07 0.04 99 1016.9
20210924070049 69 155 0.0 2.0 0.02 0.07 0.04 98 1016.9
20210924064517 69 155 0.0 1.0 0.03 0.07 0.04 98 1017.0
20210924063022 69 155 0.0 0.0 0.03 0.07 0.04 98 1016.9
20210924061522 69 155 0.0 1.0 0.02 0.06 0.03 98 1017.2
20210924060018 69 155 0.0 3.0 0.01 0.05 0.02 98 1017.4
20210924054520 69 161 0.0 3.0 0.00 0.04 0.01 97 1017.3
20210924053022 69 326 0.0 0.0 0.00 0.04 0.01 97 1017.4
20210924051541 69 325 0.0 0.0 0.00 0.04 0.01 97 1017.4
20210924050012 69 210 0.0 3.0 0.01 0.04 0.01 96 1017.5
20210924044511 69 221 0.0 1.0 0.01 0.04 0.01 96 1017.8
20210924043010 70 178 0.0 0.0 0.01 0.04 0.01 95 1017.8
20210924041542 70 281 0.0 2.0 0.01 0.04 0.01 95 1017.8
20210924040017 69 184 0.0 1.0 0.00 0.03 0.03 95 1017.9
20210924034511 69 156 0.0 2.0 0.00 0.03 0.03 95 1017.9
20210924033010 69 206 0.0 2.0 0.00 0.03 0.03 95 1017.9
20210924031505 69 123 0.0 0.0 0.00 0.03 0.03 94 1017.9
20210924030028 69 205 0.0 0.0 0.00 0.03 0.03 95 1018.1
20210924024505 70 133 0.0 1.0 0.00 0.03 0.03 94 1018.2
20210924023005 70 133 0.0 0.0 0.00 0.03 0.03 94 1018.3
20210924021503 70 133 0.0 2.0 0.00 0.03 0.03 94 1018.3
20210924020007 70 129 0.0 2.0 0.00 0.03 0.03 94 1018.3
20210924014517 70 237 0.0 0.0 0.00 0.03 0.03 94 1018.2